This is the latest recevied weather packets stored in our database for station/object K4AXV-13. If no packets are shown the sender has not sent any weather packets the latest 10 day(s).
| Time | Temp. | Humidity | Pressure | Rain* | Wind** | Luminosity | Snow |
|---|---|---|---|---|---|---|---|
| 1778097075 | 28.89° C | - | - | 0 mm | 0.89 m/s, 325° | - | - |
| 1778096474 | 28.89° C | - | - | 0 mm | 0.89 m/s, 285° | - | - |
| 1778096173 | 28.33° C | - | - | 0 mm | 0.45 m/s, 352° | - | - |
| 1778094672 | 29.44° C | - | - | 0 mm | 0.89 m/s, 295° | - | - |
| 1778094370 | 29.44° C | - | - | 0 mm | 1.34 m/s, 318° | - | - |
| 1778094071 | 29.44° C | - | - | 0 mm | 0.89 m/s, 311° | - | - |
| 1778093769 | 29.44° C | - | - | 0 mm | 1.79 m/s, 0° | - | - |
| 1778092870 | 30° C | - | - | 0 mm | 1.79 m/s, 235° | - | - |
| 1778092568 | 30° C | - | - | 0 mm | 1.34 m/s, 332° | - | - |
| 1778092270 | 30° C | - | - | 0 mm | 1.34 m/s, 332° | - | - |
| 1778091968 | 29.44° C | - | - | 0 mm | 0.89 m/s, 305° | - | - |
| 1778091669 | 30° C | - | - | 0 mm | 1.34 m/s, 271° | - | - |
| 1778091365 | 30° C | - | - | 0 mm | 0.45 m/s, 328° | - | - |
| 1778090764 | 29.44° C | - | - | 0 mm | 1.79 m/s, 316° | - | - |
| 1778090465 | 29.44° C | - | - | 0 mm | 0 m/s | - | - |
| 1778090164 | 29.44° C | - | - | 0 mm | 2.24 m/s, 225° | - | - |
| 1778089865 | 28.89° C | - | - | 0 mm | 2.24 m/s, 257° | - | - |
| 1778089562 | 28.89° C | - | - | 0 mm | 1.34 m/s, 255° | - | - |
| 1778089263 | 28.89° C | - | - | 0 mm | 2.24 m/s, 349° | - | - |
| 1778088962 | 28.89° C | - | - | 0 mm | 1.34 m/s, 314° | - | - |
| 1778088663 | 28.89° C | - | - | 0 mm | 3.13 m/s, 319° | - | - |
| 1778088362 | 28.89° C | - | - | 0 mm | 1.79 m/s, 340° | - | - |
| 1778088063 | 28.89° C | - | - | 0 mm | 2.68 m/s, 8° | - | - |
| 1778087759 | 29.44° C | - | - | 0 mm | 1.34 m/s, 236° | - | - |
| 1778087460 | 30° C | - | - | 0 mm | 1.34 m/s, 359° | - | - |
* Rain latest hour (hover to see other rain measurements)
** Current wind speed in m/s (hover to see current wind gust speed)